Home > Weather > Saint-Denis > Past weeks

Flag for Reunion (French) Weather for the Past 2 Weeks in Saint-Denis, Reunion (French)

Now
86 °F

Broken clouds.


Feels Like: 99 °F
Forecast: 79 / 86 °F
Wind: 7 mph from East

Location: Saint-Denis / Gillot

Current Time: Feb 9, 2016 at 2:56:37 PM

Latest Report: Feb 9, 2016 at 2:00 PM


Visibility: N/A

Pressure: 29.71 "Hg

Humidity: 79%

Dew point: 79 °F

Location of Saint-DenisLocation

Historic Weather in Saint-Denis — Graph

°F

Saint-Denis Temperature Yesterday

Maximum temperature yesterday: 84 °F (at 10:00 AM)
Minimum temperature yesterday: 79 °F (at 11:30 PM)
Average temperature yesterday: 81 °F

High & Low Weather Summary for the Past Weeks

 TemperatureHumidityPressure
High90 °F (Jan 27, 1:30 PM)94% (Feb 8, 11:30 PM)29.95 "Hg (Feb 8, 11:30 PM)
Low73 °F (Jan 26, 5:30 AM)43% (Jan 30, 10:30 AM)29.68 "Hg (Feb 8, 3:30 PM)
Average82 °F70%29.85 "Hg
* Reported Jan 25 1:00 PM — Feb 9 1:30 PM, Saint-Denis, Weather by CustomWeather, © 2016

Note: Actual official high and low records may vary slightly from our data, if they occured in-between our weather recording intervals... More about our weather records

Advertising

Saint-Denis Weather History for the Previous 24 Hours

 ConditionsComfort  
Time TempWeatherWind HumidityBarometerVisibility
1:30 PM
Tue, Feb 9
84 °FPartly sunny.7 mph89%29.71 "HgN/A
1:00 PM82 °FPartly sunny.7 mph89%29.71 "HgN/A
12:00 PM82 °FRain. Partly sunny.13 mph89%29.71 "Hg5 mi
11:30 AM84 °FRain. Broken clouds.14 mph84%29.71 "HgN/A
11:00 AM84 °FRain showers. Broken clouds.14 mph84%29.74 "HgN/A
10:30 AM84 °FRain showers. Broken clouds.20 mph84%29.74 "HgN/A
10:00 AM84 °FRain showers. Broken clouds.18 mph84%29.74 "HgN/A
9:30 AM84 °FRain showers. Broken clouds.15 mph84%29.74 "HgN/A
8:30 AM81 °FMostly cloudy.12 mph94%29.74 "HgN/A
7:30 AM81 °FLots of rain. Mostly cloudy.10 mph89%29.74 "Hg4 mi
7:00 AM79 °FLots of rain. Mostly cloudy.7 mph89%29.71 "Hg3 mi
6:30 AM79 °FLots of rain. More clouds than sun.13 mph89%29.71 "Hg3 mi
6:00 AM79 °FRain showers. More clouds than sun.8 mph89%29.71 "HgN/A
5:30 AM79 °FPartly sunny.9 mph89%29.71 "HgN/A
5:00 AM79 °FLight rain. Partly cloudy.10 mph89%29.71 "HgN/A
4:00 AM81 °FPassing clouds.9 mph89%29.71 "HgN/A
3:30 AM81 °FClear.9 mph89%29.71 "HgN/A
3:00 AM81 °FPartly cloudy.8 mph89%29.71 "HgN/A
2:30 AM81 °FLight rain. Passing clouds.9 mph89%29.71 "HgN/A
2:00 AM81 °FPartly cloudy.7 mph89%29.71 "HgN/A
1:30 AM81 °FMostly cloudy.8 mph89%29.71 "HgN/A
1:00 AM81 °FWarm.10 mph89%29.71 "Hg5 mi
12:30 AM81 °FMostly cloudy.12 mph89%29.74 "HgN/A
12:00 AM81 °FMostly cloudy.10 mph89%29.74 "HgN/A
11:30 PM
Mon, Feb 8
79 °FPassing clouds.17 mph94%29.74 "Hg5 mi
11:00 PM81 °FRain. Fog.23 mph89%29.74 "Hg1 mi
10:30 PM81 °FHeavy rain. Passing clouds.22 mph89%29.74 "HgN/A
10:00 PM81 °FLight rain. Passing clouds.20 mph89%29.77 "HgN/A
9:30 PM81 °FLight rain. Passing clouds.21 mph89%29.74 "Hg6 mi
9:00 PM81 °FPassing clouds.23 mph89%29.74 "HgN/A
8:30 PM81 °FPassing clouds.24 mph89%29.74 "HgN/A
8:00 PM81 °FPassing clouds.23 mph89%29.74 "HgN/A
7:30 PM81 °FPassing clouds.21 mph89%29.74 "HgN/A
7:00 PM81 °FHeavy rain. Fog.33 mph89%29.74 "Hg1 mi
6:30 PM81 °FLight rain. Mostly cloudy.28 mph89%29.71 "HgN/A
6:00 PM81 °FPartly cloudy.28 mph89%29.68 "HgN/A
5:30 PM81 °FPartly sunny.26 mph89%29.68 "HgN/A
5:00 PM82 °FPartly sunny.28 mph84%29.68 "HgN/A
4:30 PM82 °FPartly sunny.26 mph84%29.68 "HgN/A
4:00 PM82 °FPartly sunny.26 mph84%29.68 "HgN/A
3:30 PM82 °FPartly sunny.26 mph84%29.68 "HgN/A
3:00 PM82 °FPartly sunny.26 mph84%29.71 "HgN/A
2:30 PM82 °FPartly sunny.28 mph84%29.71 "HgN/A
2:00 PM84 °FPartly sunny.26 mph79%29.71 "HgN/A
Weather by CustomWeather, © 2016

See weather overviewHow to use our weather pages